FW2365 Weather Reports


Display with metric or nautical units.
time (UTC)temp
F
wind
direction
speed
MPH
gust
MPH
rain 1hr
in
rain 24hr
in
rain mn
in
humidity
%
barometer
mb
20260903200532 67 240 0.0 0.0 0.00 0.00 0.00 60 1025.8
20260903200025 67 240 0.0 0.0 0.00 0.00 0.00 60 1025.7
20260903195529 68 240 0.0 0.0 0.00 0.00 0.00 61 1025.7
20260903195029 68 240 0.0 0.0 0.00 0.00 0.00 60 1025.6
20260903194526 68 240 0.0 0.0 0.00 0.00 0.00 61 1025.6
20260903194024 68 240 0.0 0.0 0.00 0.00 0.00 61 1025.5
20260903193524 68 240 0.0 0.0 0.00 0.00 0.00 56 1025.5
20260903193024 68 240 0.0 0.0 0.00 0.00 0.00 58 1025.6
20260903192530 69 240 0.0 0.0 0.00 0.00 0.00 57 1025.5
20260903192025 69 240 0.0 0.0 0.00 0.00 0.00 57 1025.5
20260903191523 69 240 0.0 2.0 0.00 0.00 0.00 58 1025.5
20260903191024 69 240 0.0 3.0 0.00 0.00 0.00 57 1025.4
20260903190524 69 241 0.0 0.0 0.00 0.00 0.00 58 1025.4
20260903190024 69 241 0.0 1.0 0.00 0.00 0.00 57 1025.3
20260903185523 69 241 0.0 3.0 0.00 0.00 0.00 56 1025.3
20260903185023 70 243 0.0 3.0 0.00 0.00 0.00 57 1025.2
20260903184523 70 243 0.0 2.0 0.00 0.00 0.00 58 1025.3
20260903184022 70 244 0.0 2.0 0.00 0.00 0.00 54 1025.3
20260903183522 70 244 0.0 2.0 0.00 0.00 0.00 55 1025.2
20260903183023 70 266 0.0 2.0 0.00 0.00 0.00 55 1025.2
20260903182524 70 266 0.0 4.0 0.00 0.00 0.00 55 1025.1
20260903182023 70 266 2.0 4.0 0.00 0.00 0.00 55 1025.2
20260903181522 70 254 0.0 0.0 0.00 0.00 0.00 55 1025.1
20260903181021 71 254 0.0 0.0 0.00 0.00 0.00 54 1025.0
20260903180529 71 254 0.0 0.0 0.00 0.00 0.00 54 1025.0
20260903180031 71 254 0.0 0.0 0.00 0.00 0.00 54 1024.9
20260903175521 71 254 0.0 0.0 0.00 0.00 0.00 55 1025.0
20260903175021 71 254 0.0 0.0 0.00 0.00 0.00 55 1024.9
20260903174521 71 254 0.0 0.0 0.00 0.00 0.00 54 1024.9
20260903174020 71 304 0.0 0.0 0.00 0.00 0.00 55 1024.9
20260903173520 71 304 0.0 2.0 0.00 0.00 0.00 54 1024.8
20260903173020 71 304 0.0 2.0 0.00 0.00 0.00 55 1024.7
20260903172521 72 304 0.0 2.0 0.00 0.00 0.00 55 1024.8
20260903172021 72 304 0.0 2.0 0.00 0.00 0.00 55 1024.7
20260903171519 72 318 0.0 2.0 0.00 0.00 0.00 56 1024.7
20260903171019 72 318 0.0 0.0 0.00 0.00 0.00 55 1024.6
20260903170520 73 318 0.0 2.0 0.00 0.00 0.00 55 1024.6
20260903170020 73 318 0.0 2.0 0.00 0.00 0.00 54 1024.6
20260903165520 73 268 0.0 0.0 0.00 0.00 0.00 54 1024.5
20260903165019 73 268 0.0 2.0 0.00 0.00 0.00 54 1024.6
20260903164519 73 268 0.0 3.0 0.00 0.00 0.00 54 1024.6
20260903164019 73 268 1.0 5.0 0.00 0.00 0.00 53 1024.6
20260903163520 73 285 2.0 5.0 0.00 0.00 0.00 55 1024.5
20260903163018 73 281 1.0 4.0 0.00 0.00 0.00 54 1024.5
20260903162519 73 281 2.0 4.0 0.00 0.00 0.00 52 1024.5
20260903162022 73 272 0.0 3.0 0.00 0.00 0.00 55 1024.5
20260903161519 73 272 0.0 3.0 0.00 0.00 0.00 54 1024.4
20260903161017 73 287 0.0 3.0 0.00 0.00 0.00 55 1024.4
20260903160517 73 286 1.0 4.0 0.00 0.00 0.00 53 1024.4
20260903160019 73 295 1.0 5.0 0.00 0.00 0.00 52 1024.3
20260903155517 73 314 1.0 5.0 0.00 0.00 0.00 52 1024.4
20260903155019 73 304 2.0 5.0 0.00 0.00 0.00 51 1024.5
20260903154517 73 284 1.0 9.0 0.00 0.00 0.00 53 1024.5
20260903154017 73 287 3.0 12.0 0.00 0.00 0.00 51 1024.5
20260903153517 73 299 5.0 12.0 0.00 0.00 0.00 52 1024.5
20260903153016 73 288 2.0 5.0 0.00 0.00 0.00 52 1024.5
20260903152516 73 290 3.0 6.0 0.00 0.00 0.00 51 1024.5
20260903152015 73 291 3.0 13.0 0.00 0.00 0.00 51 1024.5
20260903151515 73 345 2.0 11.0 0.00 0.00 0.00 51 1024.6
20260903151015 73 290 2.0 11.0 0.00 0.00 0.00 51 1024.6
20260903150515 73 342 6.0 10.0 0.00 0.00 0.00 52 1024.6
20260903150015 73 289 7.0 13.0 0.00 0.00 0.00 53 1024.7
20260903145517 73 318 6.0 13.0 0.00 0.00 0.00 52 1024.7
20260903145018 73 328 2.0 13.0 0.00 0.00 0.00 51 1024.5
20260903144518 73 247 7.0 13.0 0.00 0.00 0.00 52 1024.6
20260903144014 73 341 9.0 13.0 0.00 0.00 0.00 52 1024.6
20260903143513 73 280 5.0 18.0 0.00 0.00 0.00 51 1024.6
20260903143013 74 263 11.0 18.0 0.00 0.00 0.00 50 1024.5
20260903142515 74 322 10.0 15.0 0.00 0.00 0.00 51 1024.5
20260903142014 74 314 5.0 13.0 0.00 0.00 0.00 52 1024.4
20260903141517 74 309 7.0 16.0 0.00 0.00 0.00 51 1024.3
20260903141013 74 314 6.0 16.0 0.00 0.00 0.00 51 1024.4
20260903140513 73 281 5.0 14.0 0.00 0.00 0.00 53 1024.5
20260903140015 73 326 6.0 14.0 0.00 0.00 0.00 52 1024.3
20260903135512 73 339 8.0 13.0 0.00 0.00 0.00 51 1024.4
20260903135012 73 318 6.0 11.0 0.00 0.00 0.00 53 1024.4
20260903134512 73 309 3.0 9.0 0.00 0.00 0.00 52 1024.4
20260903134011 73 328 5.0 12.0 0.00 0.00 0.00 54 1024.5
20260903133510 73 314 7.0 12.0 0.00 0.00 0.00 53 1024.5
20260903133010 74 323 4.0 10.0 0.00 0.00 0.00 53 1024.5
20260903132510 73 329 4.0 13.0 0.00 0.00 0.00 52 1024.6
20260903132010 74 326 5.0 13.0 0.00 0.00 0.00 52 1024.6
20260903131512 74 327 7.0 15.0 0.00 0.00 0.00 52 1024.6
20260903131010 74 282 7.0 12.0 0.00 0.00 0.00 52 1024.6
20260903130514 74 333 5.0 15.0 0.00 0.00 0.00 53 1024.7
20260903130009 74 304 9.0 15.0 0.00 0.00 0.00 52 1024.7
20260903125509 74 304 8.0 13.0 0.00 0.00 0.00 52 1024.7
20260903125012 74 349 7.0 10.0 0.00 0.00 0.00 54 1024.8
20260903124512 74 314 6.0 9.0 0.00 0.00 0.00 53 1024.8
20260903124012 74 318 4.0 9.0 0.00 0.00 0.00 55 1024.8
20260903123508 74 267 5.0 11.0 0.00 0.00 0.00 55 1024.7
20260903123008 74 290 5.0 11.0 0.00 0.00 0.00 53 1024.7
20260903122507 74 330 6.0 10.0 0.00 0.00 0.00 52 1024.7
20260903122006 74 322 5.0 10.0 0.00 0.00 0.00 53 1024.7
20260903121611 75 326 4.0 10.0 0.00 0.00 0.00 55 1024.7
20260903121005 75 324 5.0 10.0 0.00 0.00 0.00 52 1024.8
20260903120505 75 326 5.0 11.0 0.00 0.00 0.00 55 1024.7
20260903120005 74 326 6.0 11.0 0.00 0.00 0.00 54 1024.7
20260903115504 75 298 5.0 9.0 0.00 0.00 0.00 52 1024.8
20260903115003 74 309 3.0 10.0 0.00 0.00 0.00 52 1024.8
20260903114502 74 304 5.0 10.0 0.00 0.00 0.00 53 1024.8
20260903114001 74 298 5.0 9.0 0.00 0.00 0.00 54 1024.8
20260903113501 74 283 4.0 8.0 0.00 0.00 0.00 54 1024.6
20260903113100 74 296 3.0 10.0 0.00 0.00 0.00 57 1024.6
20260903112559 74 304 5.0 10.0 0.00 0.00 0.00 57 1024.7
20260903112058 73 314 3.0 12.0 0.00 0.00 0.00 55 1024.8
20260903111605 73 309 4.0 12.0 0.00 0.00 0.00 56 1024.8
20260903111056 73 314 4.0 9.0 0.00 0.00 0.00 59 1024.8
20260903110555 73 314 4.0 10.0 0.00 0.00 0.00 57 1024.9
20260903110054 73 304 6.0 10.0 0.00 0.00 0.00 57 1025.0
20260903105553 73 309 4.0 8.0 0.00 0.00 0.00 60 1025.0
20260903105053 73 304 2.0 9.0 0.00 0.00 0.00 57 1024.9
20260903104611 73 293 4.0 9.0 0.00 0.00 0.00 56 1024.8
20260903104052 73 314 4.0 6.0 0.00 0.00 0.00 56 1025.1
20260903103548 73 282 0.0 6.0 0.00 0.00 0.00 54 1025.2
20260903103058 72 314 4.0 6.0 0.00 0.00 0.00 61 1025.3
20260903102546 72 309 3.0 8.0 0.00 0.00 0.00 60 1025.3
20260903102044 71 314 2.0 5.0 0.00 0.00 0.00 57 1025.4
20260903101550 71 314 2.0 5.0 0.00 0.00 0.00 61 1025.5
20260903101043 71 314 3.0 6.0 0.00 0.00 0.00 61 1025.6
20260903100543 71 314 3.0 6.0 0.00 0.00 0.00 63 1025.6
20260903100042 71 309 3.0 6.0 0.00 0.00 0.00 61 1025.7
20260903095540 70 266 2.0 5.0 0.00 0.00 0.00 63 1025.8
20260903095040 70 309 4.0 5.0 0.00 0.00 0.00 63 1025.9
20260903094545 70 309 4.0 5.0 0.00 0.00 0.00 63 1025.8
20260903094042 70 309 3.0 4.0 0.00 0.00 0.00 64 1025.8
20260903093538 70 309 0.0 5.0 0.00 0.00 0.00 63 1025.9
20260903093046 69 309 2.0 5.0 0.00 0.00 0.00 64 1025.8
20260903092536 69 304 2.0 5.0 0.00 0.00 0.00 67 1025.7
20260903092035 69 314 3.0 8.0 0.00 0.00 0.00 68 1025.8
20260903091538 69 309 4.0 8.0 0.00 0.00 0.00 67 1025.9
20260903091034 69 309 4.0 6.0 0.00 0.00 0.00 65 1025.8
20260903090533 69 299 0.0 0.0 0.00 0.00 0.00 64 1025.9
20260903090034 69 304 0.0 0.0 0.00 0.00 0.00 65 1026.0
20260903085530 68 79 0.0 2.0 0.00 0.00 0.00 66 1025.9
20260903085028 68 80 0.0 4.0 0.00 0.00 0.00 65 1026.0
20260903084541 67 304 0.0 4.0 0.00 0.00 0.00 70 1026.1
20260903084026 67 304 0.0 0.0 0.00 0.00 0.00 69 1026.3
20260903083525 66 304 0.0 0.0 0.00 0.00 0.00 70 1026.3
20260903083024 66 298 0.0 0.0 0.00 0.00 0.00 67 1026.3
20260903082526 66 309 0.0 2.0 0.00 0.00 0.00 69 1026.4
20260903082021 65 309 0.0 1.0 0.00 0.00 0.00 70 1026.6
20260903081520 65 309 0.0 0.0 0.00 0.00 0.00 73 1026.7
20260903081023 64 309 0.0 3.0 0.00 0.00 0.00 74 1026.7
20260903080522 64 309 1.0 4.0 0.00 0.00 0.00 74 1026.8
20260903080018 64 309 2.0 6.0 0.00 0.00 0.00 75 1026.8
20260903075516 63 309 2.0 5.0 0.00 0.00 0.00 74 1026.8
20260903075015 63 309 1.0 5.0 0.00 0.00 0.00 74 1026.9
20260903074515 63 309 2.0 5.0 0.00 0.00 0.00 74 1026.8
20260903074013 63 280 2.0 5.0 0.00 0.00 0.00 75 1026.8
20260903073512 63 299 2.0 5.0 0.00 0.00 0.00 75 1026.8
20260903073013 63 281 3.0 5.0 0.00 0.00 0.00 76 1026.8
20260903072511 62 284 3.0 5.0 0.00 0.00 0.00 76 1026.9
20260903072011 62 328 3.0 5.0 0.00 0.00 0.00 75 1026.8
20260903071510 62 309 1.0 3.0 0.00 0.00 0.00 76 1026.8
20260903071010 61 233 0.0 2.0 0.00 0.00 0.00 80 1026.9
20260903070509 61 233 0.0 2.0 0.00 0.00 0.00 81 1026.8
20260903070017 60 233 0.0 0.0 0.00 0.00 0.00 80 1026.9
20260903065509 60 233 0.0 0.0 0.00 0.00 0.00 82 1026.9
20260903065007 59 233 0.0 0.0 0.00 0.00 0.00 82 1026.8
20260903064506 59 233 0.0 0.0 0.00 0.00 0.00 82 1026.8
20260903064006 59 233 0.0 0.0 0.00 0.00 0.00 85 1026.8
20260903063506 59 233 0.0 0.0 0.00 0.00 0.00 85 1026.9
20260903063005 59 233 0.0 0.0 0.00 0.00 0.00 84 1026.9
20260903062505 59 233 0.0 0.0 0.00 0.00 0.00 84 1026.9
20260903062005 59 233 0.0 0.0 0.00 0.00 0.00 83 1026.9
20260903061512 59 233 0.0 0.0 0.00 0.00 0.00 84 1026.8
20260903061003 58 233 0.0 0.0 0.00 0.00 0.00 85 1026.8
20260903060503 57 233 0.0 0.0 0.00 0.00 0.00 86 1026.8
20260903060003 57 233 0.0 0.0 0.00 0.00 0.00 86 1026.8
20260903055502 57 230 0.0 0.0 0.00 0.00 0.00 86 1026.7
20260903055102 57 230 0.0 0.0 0.00 0.00 0.00 84 1026.7
20260903054602 57 230 0.0 0.0 0.00 0.00 0.00 83 1026.7
20260903054100 57 230 0.0 0.0 0.00 0.00 0.00 84 1026.7
20260903053603 57 230 0.0 0.0 0.00 0.00 0.00 84 1026.6
20260903053101 57 230 0.0 0.0 0.00 0.00 0.00 83 1026.6
20260903052557 57 230 0.0 0.0 0.00 0.00 0.00 82 1026.5
20260903052101 57 230 0.0 0.0 0.00 0.00 0.00 82 1026.5
20260903051556 57 230 0.0 0.0 0.00 0.00 0.00 81 1026.4
20260903051055 57 230 0.0 0.0 0.00 0.00 0.00 81 1026.4
20260903050554 57 230 0.0 0.0 0.00 0.00 0.00 81 1026.3
20260903050054 57 230 0.0 0.0 0.00 0.00 0.00 81 1026.3
20260903045554 57 230 0.0 0.0 0.00 0.00 0.00 81 1026.2
20260903045052 57 230 0.0 0.0 0.00 0.00 0.00 81 1026.1
20260903044552 57 230 0.0 0.0 0.00 0.00 0.00 80 1026.3
20260903044054 57 230 0.0 0.0 0.00 0.00 0.00 80 1026.3
20260903043551 57 230 0.0 0.0 0.00 0.00 0.00 80 1026.3
20260903043050 57 230 0.0 0.0 0.00 0.00 0.00 79 1026.2
20260903042550 57 230 0.0 0.0 0.00 0.00 0.00 79 1026.2
20260903042049 57 230 0.0 0.0 0.00 0.00 0.00 79 1026.1
20260903041551 57 230 0.0 0.0 0.00 0.00 0.00 79 1026.1
20260903041048 57 230 0.0 0.0 0.00 0.00 0.00 79 1026.0
20260903040548 57 230 0.0 0.0 0.00 0.00 0.00 79 1026.0
20260903040048 57 230 0.0 0.0 0.00 0.00 0.00 79 1026.1
20260903035547 57 230 0.0 0.0 0.00 0.00 0.00 79 1026.1
20260903035047 57 230 0.0 0.0 0.00 0.00 0.00 79 1026.0
20260903034547 57 230 0.0 0.0 0.00 0.00 0.00 80 1026.0
20260903034047 57 230 0.0 0.0 0.00 0.00 0.00 81 1026.0
20260903033546 57 230 0.0 0.0 0.00 0.00 0.00 81 1026.0
20260903033047 58 230 0.0 0.0 0.00 0.00 0.00 80 1026.0
20260903032546 58 230 0.0 0.0 0.00 0.00 0.00 79 1025.9
20260903032045 58 230 0.0 0.0 0.00 0.00 0.00 79 1025.9
20260903031550 58 230 0.0 0.0 0.00 0.00 0.00 79 1025.9
20260903031049 58 230 0.0 0.0 0.00 0.00 0.00 79 1025.9
20260903030545 57 230 0.0 0.0 0.00 0.00 0.00 79 1025.9
20260903030045 57 230 0.0 0.0 0.00 0.00 0.00 80 1026.0
20260903025544 57 230 0.0 0.0 0.00 0.00 0.00 80 1026.0
20260903025044 57 230 0.0 0.0 0.00 0.00 0.00 80 1026.0
20260903024544 57 230 0.0 0.0 0.00 0.00 0.00 81 1026.0
20260903024044 57 230 0.0 0.0 0.00 0.00 0.00 81 1026.0
20260903023547 57 230 0.0 0.0 0.00 0.00 0.00 81 1026.0
20260903023043 58 230 0.0 0.0 0.00 0.00 0.00 82 1025.9
20260903022543 58 230 0.0 0.0 0.00 0.00 0.00 82 1026.0
20260903022042 58 230 0.0 0.0 0.00 0.00 0.00 82 1025.9
20260903021545 58 230 0.0 0.0 0.00 0.00 0.00 82 1025.9
20260903021041 58 230 0.0 0.0 0.00 0.00 0.00 81 1025.9
20260903020541 58 230 0.0 0.0 0.00 0.00 0.00 80 1025.8
20260903020059 58 230 0.0 0.0 0.00 0.00 0.00 80 1025.8
20260903015541 58 230 0.0 0.0 0.00 0.00 0.00 81 1025.8
20260903015039 58 230 0.0 0.0 0.00 0.00 0.00 81 1025.8
20260903014540 58 230 0.0 2.0 0.00 0.00 0.00 81 1025.8
20260903014042 58 230 0.0 2.0 0.00 0.00 0.00 80 1025.8
20260903013537 59 230 0.0 0.0 0.00 0.00 0.00 80 1025.8
20260903013036 59 230 0.0 0.0 0.00 0.00 0.00 79 1025.8
20260903012536 59 230 0.0 0.0 0.00 0.00 0.00 78 1025.8
20260903012035 59 230 0.0 0.0 0.00 0.00 0.00 77 1025.8
20260903011538 60 230 0.0 0.0 0.00 0.00 0.00 77 1025.8
20260903011034 60 230 0.0 0.0 0.00 0.00 0.00 76 1025.8
20260903010533 60 230 0.0 2.0 0.00 0.00 0.00 76 1025.7
20260903010034 60 230 0.0 2.0 0.00 0.00 0.00 76 1025.7
20260903005535 60 233 0.0 0.0 0.00 0.00 0.00 76 1025.6
20260903005034 60 233 0.0 0.0 0.00 0.00 0.00 76 1025.7
20260903004532 60 233 0.0 0.0 0.00 0.00 0.00 76 1025.7
20260903004033 60 233 0.0 0.0 0.00 0.00 0.00 75 1025.7
20260903003531 60 233 0.0 0.0 0.00 0.00 0.00 75 1025.7
20260903003033 60 233 0.0 0.0 0.00 0.00 0.00 75 1025.7
20260903002531 60 233 0.0 0.0 0.00 0.00 0.00 74 1025.7
20260903002031 60 233 0.0 0.0 0.00 0.00 0.00 75 1025.7
20260903001534 60 233 0.0 0.0 0.00 0.00 0.00 75 1025.7
20260903001029 60 233 0.0 0.0 0.00 0.00 0.00 75 1025.7
20260903000529 60 233 0.0 0.0 0.00 0.00 0.00 74 1025.6
20260903000038 60 233 0.0 0.0 0.00 0.00 0.00 74 1025.7
20260902235530 61 233 0.0 0.0 0.00 0.00 0.00 74 1025.7
20260902235028 61 233 0.0 0.0 0.00 0.00 0.00 73 1025.7
20260902234527 61 233 0.0 0.0 0.00 0.00 0.00 72 1025.7
20260902234030 61 233 0.0 0.0 0.00 0.00 0.00 72 1025.8
20260902233527 61 233 0.0 0.0 0.00 0.00 0.00 72 1025.7
20260902233028 61 233 0.0 0.0 0.00 0.00 0.00 72 1025.7
20260902232531 61 233 0.0 2.0 0.00 0.00 0.00 72 1025.7
20260902232025 61 233 0.0 2.0 0.00 0.00 0.00 72 1025.8
20260902231531 61 233 1.0 2.0 0.00 0.00 0.00 73 1025.8
20260902231025 61 233 1.0 2.0 0.00 0.00 0.00 73 1025.8
20260902230526 61 284 0.0 0.0 0.00 0.00 0.00 73 1025.9
20260902230024 61 285 0.0 0.0 0.00 0.00 0.00 73 1025.9
20260902225524 61 285 0.0 0.0 0.00 0.00 0.00 73 1025.9
20260902225028 61 285 0.0 0.0 0.00 0.00 0.00 73 1026.0
20260902224522 62 285 0.0 0.0 0.00 0.00 0.00 72 1025.9
20260902224021 62 285 0.0 0.0 0.00 0.00 0.00 72 1025.9
20260902223521 62 285 0.0 0.0 0.00 0.00 0.00 71 1025.9
20260902223021 62 285 0.0 0.0 0.00 0.00 0.00 71 1025.9
20260902222525 62 285 0.0 1.0 0.00 0.00 0.00 70 1025.8
20260902222023 62 285 0.0 2.0 0.00 0.00 0.00 70 1025.8
20260902221535 62 285 0.0 2.0 0.00 0.00 0.00 70 1025.8
20260902221022 62 285 0.0 0.0 0.00 0.00 0.00 70 1025.7
20260902220519 62 285 0.0 0.0 0.00 0.00 0.00 70 1025.8
20260902220017 62 285 0.0 0.0 0.00 0.00 0.00 70 1025.7
20260902215518 62 285 0.0 0.0 0.00 0.00 0.00 71 1025.7
20260902215017 62 285 0.0 0.0 0.00 0.00 0.00 70 1025.7
20260902214518 63 285 0.0 0.0 0.00 0.00 0.00 70 1025.6
20260902214017 63 285 0.0 1.0 0.00 0.00 0.00 69 1025.6
20260902213516 63 285 0.0 1.0 0.00 0.00 0.00 69 1025.5
20260902213019 63 285 0.0 0.0 0.00 0.00 0.00 69 1025.6
20260902212516 63 285 0.0 0.0 0.00 0.00 0.00 69 1025.5
20260902212016 63 285 0.0 0.0 0.00 0.00 0.00 70 1025.5
20260902211518 63 285 0.0 0.0 0.00 0.00 0.00 69 1025.5
20260902211016 63 285 0.0 0.0 0.00 0.00 0.00 69 1025.5
20260902210516 63 285 0.0 2.0 0.00 0.00 0.00 70 1025.4
20260902210016 63 285 1.0 3.0 0.00 0.00 0.00 69 1025.4
20260902205515 63 285 0.0 3.0 0.00 0.00 0.00 69 1025.4
20260902205016 63 304 0.0 0.0 0.00 0.00 0.00 72 1025.3
20260902204515 63 304 0.0 0.0 0.00 0.00 0.00 72 1025.2
20260902204014 64 304 0.0 0.0 0.00 0.00 0.00 70 1025.3
20260902203514 64 304 0.0 0.0 0.00 0.00 0.00 70 1025.3
20260902203018 64 304 0.0 0.0 0.00 0.00 0.00 69 1025.2
20260902202515 64 304 0.0 0.0 0.00 0.00 0.00 68 1025.2
20260902202016 64 304 0.0 0.0 0.00 0.00 0.00 65 1025.2
20260902201514 65 304 0.0 0.0 0.00 0.00 0.00 66 1025.2
20260902201019 65 304 0.0 0.0 0.00 0.00 0.00 64 1025.2